Weather History for KPUB - February, 2014

Change the Weather History Date:

Friday, February 28, 2014

  Actual Average Record
Temperature  
Mean Temperature 48 °F 38 °F  
Max Temperature 65 °F 54 °F 79 °F (2006)
Min Temperature 30 °F 21 °F -19 °F (1962)
Degree Days  
Heating Degree Days 17 27  
Month to date heating degree days 920 871  
Since 1 July heating degree days 4205 4303  
Cooling Degree Days 0 0  
Month to date cooling degree days 0 0  
Year to date cooling degree days 0 0  
Moisture  
Dew Point 19 °F    
Average Humidity 42    
Maximum Humidity 72    
Minimum Humidity 11    
Precipitation  
Precipitation 0.00 in 0.02 in 0.58 in (1931)
Month to date precipitation 0.28 0.30  
Year to date precipitation 0.73 0.65  
Snow  
Snow 0.00 in 0.10 in 6.70 in (1931)
Month to date snowfall 4.9 3.8  
Since 1 July snowfall 18.6 21.8  
Snow Depth 0.00 in    
Sea Level Pressure  
Sea Level Pressure 29.63 in    
Wind  
Wind Speed 22 mph (WNW)    
Max Wind Speed 39 mph    
Max Gust Speed 45 mph    
Visibility 10 miles    
Events      
T = Trace of Precipitation, MM = Missing Value Source: NWS Daily Summary

Daily Weather History Graph

Daily Weather History Graph

Search for Another Location

Airport or City:

Trip Planner

Search our weather history database for the weather conditions in past years. The results will help you decide how hot, cold, wet, or windy it might be!

Date:

Astronomy

Feb. 28, 2014 Rise Set
Actual Time 6:31 AM MST 5:50 PM MST
Civil Twilight 6:04 AM MST 6:16 PM MST
Nautical Twilight 5:34 AM MST 6:47 PM MST
Astronomical Twilight 5:03 AM MST 7:18 PM MST
Moon 5:47 AM MST (2/28) 5:29 PM MST (2/28)
Length of Visible Light 12h 12m
Length of Day
11h 19m
Waning Crescent, 0% of the Moon is Illuminated
Feb 28
Waning Crescent
Mar 1
New
Mar 8
First Quarter
Mar 16
Full
Mar 23
Last Quarter

Hourly Weather History & Observations

Time (MST) Temp. Windchill Dew Point Humidity Pressure Visibility Wind Dir Wind Speed Gust Speed Precip Events Conditions
12:53 AM 48.0 °F - 24.1 °F 39% 29.44 in 10.0 mi WNW 16.1 mph - N/A   Clear
1:53 AM 50.0 °F - 23.0 °F 35% 29.42 in 10.0 mi WNW 29.9 mph 39.1 mph N/A   Clear
2:53 AM 48.9 °F - 23.0 °F 36% 29.43 in 10.0 mi WNW 26.5 mph 32.2 mph N/A   Clear
3:53 AM 46.9 °F - 23.0 °F 39% 29.47 in 10.0 mi West 21.9 mph - N/A   Clear
4:53 AM 48.0 °F - 21.0 °F 34% 29.49 in 10.0 mi WNW 24.2 mph 31.1 mph N/A   Clear
5:53 AM 48.0 °F - 21.0 °F 34% 29.53 in 10.0 mi WNW 24.2 mph 29.9 mph N/A   Clear
6:53 AM 48.9 °F - 19.9 °F 32% 29.56 in 10.0 mi WNW 24.2 mph 31.1 mph N/A   Clear
7:53 AM 52.0 °F - 19.0 °F 27% 29.60 in 10.0 mi WNW 25.3 mph - N/A   Clear
8:53 AM 55.0 °F - 19.0 °F 24% 29.61 in 10.0 mi WNW 34.5 mph 40.3 mph N/A   Clear
9:53 AM 57.9 °F - 19.0 °F 22% 29.61 in 10.0 mi WNW 32.2 mph 43.7 mph N/A   Clear
10:53 AM 60.1 °F - 15.1 °F 17% 29.62 in 10.0 mi West 29.9 mph 39.1 mph N/A   Clear
11:53 AM 62.1 °F - 10.9 °F 13% 29.62 in 10.0 mi WNW 31.1 mph 40.3 mph N/A   Clear
12:53 PM 62.1 °F - 8.1 °F 12% 29.60 in 10.0 mi WNW 29.9 mph - N/A   Clear
1:53 PM 64.0 °F - 9.0 °F 12% 29.57 in 10.0 mi West 20.7 mph 29.9 mph N/A   Clear
2:53 PM 63.0 °F - 6.1 °F 11% 29.57 in 10.0 mi WNW 20.7 mph 32.2 mph N/A   Clear
3:53 PM 63.0 °F - 6.1 °F 11% 29.56 in 10.0 mi NW 19.6 mph - N/A   Clear
4:53 PM 63.0 °F - 12.0 °F 14% 29.57 in 10.0 mi WNW 21.9 mph 27.6 mph N/A   Clear
5:53 PM 59.0 °F - 10.9 °F 15% 29.63 in 10.0 mi WSW 12.7 mph - N/A   Clear
6:53 PM 48.0 °F - 26.1 °F 42% 29.72 in 10.0 mi East 21.9 mph - N/A   Partly Cloudy
7:00 PM 46.9 °F - 26.1 °F 44% 29.79 in 10.0 mi East 25.3 mph - N/A   Clear
7:53 PM 41.0 °F 32.8 °F 26.1 °F 55% 29.77 in 4.0 mi East 16.1 mph - N/A   Haze
8:53 PM 37.0 °F 28.1 °F 25.0 °F 62% 29.81 in 10.0 mi East 15.0 mph - N/A   Clear
9:53 PM 34.0 °F 25.0 °F 25.0 °F 70% 29.83 in 10.0 mi East 12.7 mph - N/A   Clear
10:53 PM 30.9 °F 24.3 °F 23.0 °F 72% 29.84 in 10.0 mi East 6.9 mph - N/A   Clear
11:33 PM 30.0 °F 22.4 °F 23.0 °F 75% 29.88 in 10.0 mi East 8.1 mph - N/A   Mostly Cloudy
11:53 PM 30.0 °F 24.1 °F 24.1 °F 79% 29.86 in 10.0 mi East 5.8 mph - N/A   Overcast